| time (UTC) | temp F | wind direction | speed MPH | gust MPH | rain 1hr in | rain 24hr in | rain mn in | humidity % | barometer mb |
| 20260509145245 | 78 | 281 | 3.0 | 5.0 | 0.00 | 0.01 | 0.01 | 86 | 1011.5 |
| 20260509144742 | 77 | 256 | 5.0 | 6.0 | 0.00 | 0.01 | 0.01 | 86 | 1011.7 |
| 20260509144239 | 77 | 215 | 4.0 | 6.0 | 0.00 | 0.01 | 0.01 | 87 | 1011.9 |
| 20260509143736 | 77 | 282 | 3.0 | 3.0 | 0.00 | 0.01 | 0.01 | 87 | 1011.7 |
| 20260509143234 | 77 | 271 | 3.0 | 3.0 | 0.00 | 0.01 | 0.01 | 88 | 1011.6 |
| 20260509142729 | 76 | 297 | 3.0 | 3.0 | 0.00 | 0.01 | 0.01 | 88 | 1011.4 |
| 20260509142226 | 76 | 205 | 4.0 | 5.0 | 0.00 | 0.01 | 0.01 | 88 | 1011.5 |
| 20260509141722 | 76 | 251 | 3.0 | 3.0 | 0.00 | 0.01 | 0.01 | 89 | 1011.5 |
| 20260509141219 | 75 | 268 | 1.0 | 2.0 | 0.00 | 0.01 | 0.01 | 91 | 1011.4 |
| 20260509140715 | 74 | 241 | 3.0 | 3.0 | 0.00 | 0.01 | 0.01 | 92 | 1011.3 |
| 20260509140213 | 74 | 249 | 5.0 | 7.0 | 0.00 | 0.01 | 0.01 | 92 | 1011.0 |
| 20260509135710 | 74 | 217 | 5.0 | 6.0 | 0.00 | 0.01 | 0.01 | 92 | 1010.8 |
| 20260509135208 | 74 | 241 | 4.0 | 5.0 | 0.00 | 0.01 | 0.01 | 93 | 1010.9 |
| 20260509134704 | 73 | 222 | 7.0 | 8.0 | 0.00 | 0.01 | 0.01 | 93 | 1011.1 |
| 20260509134202 | 73 | 210 | 9.0 | 10.0 | 0.00 | 0.01 | 0.01 | 94 | 1010.9 |
| 20260509133659 | 72 | 248 | 5.0 | 6.0 | 0.00 | 0.01 | 0.01 | 95 | 1010.9 |
| 20260509133156 | 72 | 229 | 3.0 | 3.0 | 0.00 | 0.01 | 0.01 | 96 | 1011.0 |
| 20260509132654 | 72 | 240 | 6.0 | 7.0 | 0.00 | 0.01 | 0.01 | 96 | 1011.2 |
| 20260509132153 | 71 | 241 | 4.0 | 6.0 | 0.00 | 0.01 | 0.01 | 97 | 1011.1 |
| 20260509131648 | 71 | 231 | 10.0 | 10.0 | 0.00 | 0.01 | 0.01 | 97 | 1011.1 |
| 20260509131145 | 71 | 231 | 5.0 | 6.0 | 0.00 | 0.01 | 0.01 | 97 | 1011.3 |
| 20260509130641 | 71 | 225 | 5.0 | 6.0 | 0.00 | 0.01 | 0.01 | 97 | 1010.8 |
| 20260509130138 | 71 | 199 | 8.0 | 9.0 | 0.00 | 0.01 | 0.01 | 97 | 1011.0 |
| 20260509125634 | 71 | 224 | 5.0 | 6.0 | 0.00 | 0.01 | 0.01 | 97 | 1011.3 |
| 20260509125131 | 71 | 281 | 2.0 | 2.0 | 0.00 | 0.01 | 0.01 | 97 | 1011.3 |
| 20260509124627 | 71 | 296 | 1.0 | 1.0 | 0.00 | 0.01 | 0.01 | 97 | 1011.6 |
| 20260509124125 | 71 | 280 | 1.0 | 2.0 | 0.00 | 0.01 | 0.01 | 97 | 1011.5 |
| 20260509123623 | 71 | 316 | 1.0 | 1.0 | 0.00 | 0.01 | 0.01 | 97 | 1011.5 |
| 20260509123119 | 70 | 303 | 0.0 | 1.0 | 0.00 | 0.01 | 0.01 | 97 | 1011.6 |
| 20260509122615 | 70 | 318 | 2.0 | 2.0 | 0.00 | 0.01 | 0.01 | 97 | 1011.5 |
| 20260509122113 | 70 | 326 | 3.0 | 3.0 | 0.00 | 0.01 | 0.01 | 97 | 1011.5 |
| 20260509121609 | 70 | 325 | 0.0 | 0.0 | 0.00 | 0.01 | 0.01 | 97 | 1011.3 |
| 20260509121107 | 70 | 324 | 0.0 | 0.0 | 0.00 | 0.01 | 0.01 | 97 | 1011.5 |
| 20260509120604 | 70 | 322 | 0.0 | 0.0 | 0.00 | 0.01 | 0.01 | 97 | 1011.5 |
| 20260509115559 | 70 | 36 | 1.0 | 2.0 | 0.00 | 0.01 | 0.01 | 97 | 1011.8 |
| 20260509115057 | 70 | 346 | 0.0 | 0.0 | 0.00 | 0.01 | 0.01 | 97 | 1011.7 |
| 20260509114555 | 70 | 36 | 3.0 | 3.0 | 0.00 | 0.01 | 0.01 | 97 | 1012.0 |
| 20260509114054 | 70 | 317 | 0.0 | 0.0 | 0.00 | 0.01 | 0.01 | 97 | 1011.9 |
| 20260509113551 | 70 | 27 | 2.0 | 2.0 | 0.00 | 0.01 | 0.01 | 97 | 1011.9 |
| 20260509113049 | 70 | 292 | 1.0 | 2.0 | 0.00 | 0.01 | 0.01 | 97 | 1012.1 |
| 20260509112545 | 70 | 286 | 1.0 | 2.0 | 0.00 | 0.01 | 0.01 | 97 | 1012.1 |
| 20260509112042 | 70 | 302 | 1.0 | 1.0 | 0.00 | 0.01 | 0.01 | 97 | 1012.1 |
| 20260509111539 | 70 | 324 | 0.0 | 0.0 | 0.00 | 0.01 | 0.01 | 97 | 1012.2 |
| 20260509111036 | 70 | 14 | 0.0 | 1.0 | 0.00 | 0.01 | 0.01 | 97 | 1012.5 |
| 20260509110533 | 70 | 325 | 0.0 | 0.0 | 0.00 | 0.01 | 0.01 | 97 | 1012.7 |
| 20260509110030 | 70 | 335 | 1.0 | 1.0 | 0.00 | 0.01 | 0.01 | 97 | 1013.0 |
| 20260509105529 | 70 | 30 | 2.0 | 5.0 | 0.00 | 0.01 | 0.01 | 97 | 1012.6 |
| 20260509105026 | 70 | 30 | 1.0 | 1.0 | 0.00 | 0.01 | 0.01 | 96 | 1012.4 |
| 20260509104523 | 71 | 38 | 2.0 | 5.0 | 0.00 | 0.01 | 0.01 | 96 | 1012.4 |
| 20260509104020 | 71 | 14 | 3.0 | 3.0 | 0.00 | 0.01 | 0.01 | 96 | 1012.9 |
| 20260509103517 | 71 | 337 | 1.0 | 1.0 | 0.07 | 0.01 | 0.01 | 96 | 1012.7 |
| 20260509103015 | 71 | 332 | 3.0 | 3.0 | 0.07 | 0.01 | 0.01 | 96 | 1012.9 |
| 20260509102512 | 71 | 34 | 1.0 | 3.0 | 0.00 | 0.00 | 0.00 | 96 | 1012.9 |
| 20260509102009 | 71 | 323 | 1.0 | 1.0 | 0.00 | 0.00 | 0.00 | 96 | 1012.9 |
| 20260509101505 | 71 | 9 | 2.0 | 3.0 | 0.00 | 0.00 | 0.00 | 96 | 1012.5 |
| 20260509101002 | 71 | 332 | 0.0 | 0.0 | 0.00 | 0.00 | 0.00 | 96 | 1012.4 |
| 20260509100459 | 71 | 342 | 1.0 | 1.0 | 0.00 | 0.00 | 0.00 | 96 | 1012.2 |
| 20260509095956 | 71 | 339 | 1.0 | 1.0 | 0.00 | 0.00 | 0.00 | 96 | 1012.0 |
| 20260509095453 | 71 | 46 | 2.0 | 3.0 | 0.00 | 0.00 | 0.00 | 96 | 1011.9 |
| 20260509094950 | 71 | 22 | 2.0 | 2.0 | 0.00 | 0.00 | 0.00 | 96 | 1011.9 |
| 20260509094447 | 71 | 16 | 1.0 | 1.0 | 0.00 | 0.00 | 0.00 | 96 | 1011.5 |
| 20260509093944 | 71 | 0 | 1.0 | 1.0 | 0.00 | 0.00 | 0.00 | 96 | 1011.3 |
| 20260509093442 | 71 | 356 | 1.0 | 2.0 | 0.00 | 0.00 | 0.00 | 96 | 1011.2 |
| 20260509092939 | 71 | 28 | 2.0 | 2.0 | 0.00 | 0.00 | 0.00 | 96 | 1011.0 |
| 20260509092437 | 71 | 343 | 0.0 | 1.0 | 0.00 | 0.00 | 0.00 | 96 | 1011.3 |
| 20260509091936 | 71 | 346 | 1.0 | 1.0 | 0.00 | 0.00 | 0.00 | 96 | 1011.1 |
| 20260509091432 | 71 | 16 | 2.0 | 2.0 | 0.00 | 0.00 | 0.00 | 96 | 1010.9 |
| 20260509090929 | 71 | 19 | 2.0 | 2.0 | 0.00 | 0.00 | 0.00 | 96 | 1010.9 |
| 20260509090426 | 71 | 346 | 1.0 | 1.0 | 0.00 | 0.00 | 0.00 | 96 | 1011.1 |
| 20260509085924 | 71 | 25 | 2.0 | 3.0 | 0.00 | 0.00 | 0.00 | 96 | 1011.0 |
| 20260509085421 | 71 | 58 | 4.0 | 6.0 | 0.00 | 0.00 | 0.00 | 96 | 1011.1 |
| 20260509084917 | 71 | 68 | 3.0 | 3.0 | 0.00 | 0.00 | 0.00 | 95 | 1011.3 |
| 20260509084414 | 71 | 7 | 1.0 | 2.0 | 0.00 | 0.00 | 0.00 | 95 | 1011.3 |
| 20260509083912 | 71 | 11 | 1.0 | 2.0 | 0.00 | 0.00 | 0.00 | 95 | 1011.2 |
| 20260509083409 | 71 | 353 | 0.0 | 0.0 | 0.00 | 0.00 | 0.00 | 95 | 1011.2 |
| 20260509082905 | 71 | 330 | 0.0 | 0.0 | 0.00 | 0.00 | 0.00 | 95 | 1011.6 |
| 20260509082402 | 71 | 325 | 0.0 | 0.0 | 0.00 | 0.00 | 0.00 | 95 | 1011.6 |
| 20260509081859 | 71 | 0 | 2.0 | 2.0 | 0.00 | 0.00 | 0.00 | 95 | 1011.7 |
| 20260509081356 | 71 | 358 | 1.0 | 1.0 | 0.00 | 0.00 | 0.00 | 95 | 1011.6 |
| 20260509080854 | 71 | 11 | 1.0 | 2.0 | 0.00 | 0.00 | 0.00 | 95 | 1011.6 |
| 20260509080352 | 71 | 327 | 0.0 | 0.0 | 0.00 | 0.00 | 0.00 | 95 | 1011.8 |
| 20260509075850 | 71 | 331 | 0.0 | 0.0 | 0.00 | 0.00 | 0.00 | 95 | 1011.6 |
| 20260509075346 | 71 | 73 | 3.0 | 3.0 | 0.00 | 0.00 | 0.00 | 95 | 1011.7 |
| 20260509074844 | 71 | 9 | 1.0 | 1.0 | 0.00 | 0.00 | 0.00 | 95 | 1011.7 |
| 20260509074342 | 71 | 328 | 0.0 | 0.0 | 0.00 | 0.00 | 0.00 | 95 | 1011.6 |
| 20260509073837 | 71 | 7 | 1.0 | 1.0 | 0.00 | 0.00 | 0.00 | 95 | 1011.4 |
| 20260509073334 | 71 | 343 | 0.0 | 0.0 | 0.00 | 0.00 | 0.00 | 95 | 1011.6 |
| 20260509072831 | 71 | 325 | 0.0 | 0.0 | 0.00 | 0.00 | 0.00 | 95 | 1011.7 |
| 20260509072327 | 71 | 325 | 0.0 | 0.0 | 0.00 | 0.00 | 0.00 | 95 | 1011.7 |
| 20260509071824 | 71 | 325 | 0.0 | 0.0 | 0.00 | 0.00 | 0.00 | 95 | 1011.8 |
| 20260509071321 | 71 | 352 | 0.0 | 0.0 | 0.00 | 0.00 | 0.00 | 95 | 1011.8 |
| 20260509070818 | 72 | 311 | 0.0 | 0.0 | 0.00 | 0.00 | 0.00 | 95 | 1012.3 |
| 20260509070315 | 72 | 311 | 0.0 | 0.0 | 0.00 | 0.00 | 0.00 | 95 | 1012.1 |
| 20260509065811 | 71 | 312 | 0.0 | 0.0 | 0.00 | 0.00 | 0.00 | 95 | 1012.2 |
| 20260509065307 | 72 | 312 | 0.0 | 0.0 | 0.00 | 0.00 | 0.00 | 95 | 1011.9 |
| 20260509064803 | 72 | 312 | 0.0 | 0.0 | 0.00 | 0.00 | 0.00 | 95 | 1011.9 |
| 20260509064301 | 71 | 317 | 0.0 | 0.0 | 0.00 | 0.00 | 0.00 | 95 | 1012.0 |
| 20260509063759 | 71 | 315 | 0.0 | 0.0 | 0.00 | 0.00 | 0.00 | 95 | 1011.8 |
| 20260509063254 | 71 | 306 | 0.0 | 0.0 | 0.00 | 0.00 | 0.00 | 95 | 1011.9 |
| 20260509062752 | 71 | 258 | 1.0 | 2.0 | 0.00 | 0.00 | 0.00 | 95 | 1011.9 |
| 20260509062249 | 71 | 302 | 0.0 | 0.0 | 0.00 | 0.00 | 0.00 | 95 | 1012.0 |
| 20260509061746 | 71 | 308 | 1.0 | 1.0 | 0.00 | 0.00 | 0.00 | 95 | 1011.8 |
| 20260509061244 | 71 | 303 | 1.0 | 1.0 | 0.00 | 0.00 | 0.00 | 95 | 1011.9 |
| 20260509060741 | 71 | 306 | 1.0 | 2.0 | 0.00 | 0.00 | 0.00 | 95 | 1011.4 |
| 20260509060237 | 71 | 176 | 4.0 | 5.0 | 0.00 | 0.00 | 0.00 | 95 | 1011.2 |
| 20260509055733 | 71 | 166 | 3.0 | 5.0 | 0.00 | 0.00 | 0.00 | 95 | 1011.4 |
| 20260509055229 | 71 | 218 | 6.0 | 7.0 | 0.00 | 0.00 | 0.00 | 95 | 1011.3 |
| 20260509054726 | 71 | 214 | 4.0 | 5.0 | 0.00 | 0.00 | 0.00 | 95 | 1011.3 |
| 20260509054223 | 71 | 227 | 4.0 | 6.0 | 0.00 | 0.00 | 0.00 | 95 | 1011.5 |
| 20260509053721 | 71 | 259 | 5.0 | 6.0 | 0.00 | 0.00 | 0.00 | 95 | 1011.3 |
| 20260509053218 | 71 | 254 | 3.0 | 5.0 | 0.00 | 0.00 | 0.00 | 95 | 1010.8 |
| 20260509052716 | 71 | 212 | 6.0 | 7.0 | 0.00 | 0.00 | 0.00 | 95 | 1010.5 |
| 20260509052213 | 71 | 187 | 3.0 | 3.0 | 0.00 | 0.00 | 0.00 | 94 | 1010.5 |
| 20260509051711 | 71 | 226 | 7.0 | 8.0 | 0.00 | 0.00 | 0.00 | 94 | 1010.3 |
| 20260509051208 | 71 | 215 | 3.0 | 5.0 | 0.00 | 0.00 | 0.00 | 94 | 1010.4 |
| 20260509050705 | 71 | 186 | 4.0 | 5.0 | 0.00 | 0.00 | 0.00 | 94 | 1010.3 |
| 20260509050201 | 71 | 254 | 3.0 | 3.0 | 0.00 | 0.00 | 0.00 | 94 | 1010.4 |
| 20260509045659 | 71 | 259 | 2.0 | 2.0 | 0.00 | 0.00 | 0.00 | 94 | 1010.4 |
| 20260509045156 | 71 | 274 | 1.0 | 2.0 | 0.00 | 0.00 | 0.00 | 93 | 1010.4 |
| 20260509044653 | 71 | 151 | 3.0 | 3.0 | 0.00 | 0.00 | 0.00 | 93 | 1010.4 |
| 20260509044150 | 71 | 222 | 2.0 | 2.0 | 0.00 | 0.00 | 0.00 | 93 | 1010.6 |
| 20260509043647 | 71 | 263 | 2.0 | 2.0 | 0.00 | 0.00 | 0.00 | 93 | 1010.5 |
| 20260509043142 | 71 | 220 | 3.0 | 3.0 | 0.00 | 0.00 | 0.00 | 93 | 1010.8 |
| 20260509042639 | 72 | 257 | 3.0 | 3.0 | 0.00 | 0.00 | 0.00 | 93 | 1010.7 |
| 20260509042135 | 72 | 204 | 4.0 | 5.0 | 0.00 | 0.00 | 0.00 | 93 | 1010.9 |
| 20260509041632 | 72 | 230 | 3.0 | 3.0 | 0.00 | 0.00 | 0.00 | 92 | 1011.0 |
| 20260509041129 | 72 | 217 | 3.0 | 3.0 | 0.00 | 0.00 | 0.00 | 92 | 1011.0 |
| 20260509040628 | 72 | 250 | 3.0 | 3.0 | 0.00 | 0.00 | 0.00 | 92 | 1011.1 |
| 20260509040124 | 72 | 238 | 3.0 | 3.0 | 0.00 | 0.00 | 0.00 | 92 | 1011.2 |
| 20260509035621 | 72 | 229 | 2.0 | 2.0 | 0.00 | 0.00 | 0.00 | 92 | 1011.1 |
| 20260509035118 | 72 | 243 | 2.0 | 2.0 | 0.00 | 0.00 | 0.00 | 92 | 1011.0 |
| 20260509034616 | 72 | 217 | 3.0 | 3.0 | 0.00 | 0.00 | 0.00 | 92 | 1011.2 |
| 20260509034113 | 72 | 254 | 3.0 | 3.0 | 0.00 | 0.00 | 0.00 | 92 | 1011.0 |
| 20260509033609 | 72 | 236 | 3.0 | 3.0 | 0.00 | 0.00 | 0.00 | 92 | 1010.8 |
| 20260509033106 | 72 | 235 | 5.0 | 6.0 | 0.00 | 0.00 | 0.00 | 91 | 1010.6 |
| 20260509032604 | 72 | 214 | 6.0 | 7.0 | 0.00 | 0.00 | 0.00 | 91 | 1010.7 |
| 20260509032100 | 72 | 199 | 6.0 | 7.0 | 0.00 | 0.00 | 0.00 | 91 | 1010.6 |
| 20260509031558 | 72 | 218 | 5.0 | 6.0 | 0.00 | 0.00 | 0.00 | 91 | 1010.6 |
| 20260509031055 | 73 | 205 | 5.0 | 5.0 | 0.00 | 0.00 | 0.00 | 90 | 1010.6 |
| 20260509030554 | 73 | 192 | 3.0 | 3.0 | 0.00 | 0.00 | 0.00 | 90 | 1010.7 |
| 20260509030050 | 73 | 224 | 4.0 | 5.0 | 0.00 | 0.00 | 0.00 | 90 | 1010.7 |
| 20260509025546 | 73 | 207 | 5.0 | 6.0 | 0.00 | 0.00 | 0.00 | 89 | 1010.5 |
| 20260509025042 | 73 | 262 | 3.0 | 7.0 | 0.00 | 0.00 | 0.00 | 89 | 1010.5 |
| 20260509024538 | 73 | 179 | 4.0 | 5.0 | 0.00 | 0.00 | 0.00 | 89 | 1010.6 |
| 20260509024034 | 73 | 202 | 3.0 | 5.0 | 0.00 | 0.00 | 0.00 | 89 | 1010.6 |
| 20260509023532 | 74 | 145 | 4.0 | 5.0 | 0.00 | 0.00 | 0.00 | 88 | 1010.5 |
| 20260509023029 | 74 | 192 | 2.0 | 5.0 | 0.00 | 0.00 | 0.00 | 88 | 1010.3 |
| 20260509022525 | 74 | 241 | 3.0 | 3.0 | 0.00 | 0.00 | 0.00 | 88 | 1010.3 |
| 20260509022023 | 74 | 177 | 4.0 | 6.0 | 0.00 | 0.00 | 0.00 | 87 | 1010.0 |
| 20260509021520 | 74 | 213 | 5.0 | 6.0 | 0.00 | 0.00 | 0.00 | 87 | 1010.1 |
| 20260509021017 | 74 | 246 | 4.0 | 6.0 | 0.00 | 0.00 | 0.00 | 86 | 1010.1 |
| 20260509020515 | 75 | 185 | 3.0 | 5.0 | 0.00 | 0.00 | 0.00 | 86 | 1010.0 |
| 20260509020012 | 75 | 182 | 5.0 | 7.0 | 0.00 | 0.00 | 0.00 | 86 | 1010.0 |
| 20260509015511 | 75 | 208 | 4.0 | 6.0 | 0.00 | 0.00 | 0.00 | 86 | 1009.6 |
| 20260509015008 | 75 | 186 | 3.0 | 3.0 | 0.00 | 0.00 | 0.00 | 85 | 1009.8 |
| 20260509014504 | 75 | 177 | 6.0 | 7.0 | 0.00 | 0.00 | 0.00 | 85 | 1009.5 |
| 20260509014000 | 75 | 184 | 7.0 | 9.0 | 0.00 | 0.00 | 0.00 | 84 | 1009.6 |
| 20260509013457 | 75 | 210 | 4.0 | 6.0 | 0.00 | 0.00 | 0.00 | 84 | 1009.6 |
| 20260509012953 | 75 | 205 | 6.0 | 7.0 | 0.00 | 0.00 | 0.00 | 84 | 1009.6 |
| 20260509012450 | 75 | 208 | 4.0 | 5.0 | 0.00 | 0.00 | 0.00 | 83 | 1009.5 |
| 20260509011947 | 76 | 187 | 4.0 | 5.0 | 0.00 | 0.00 | 0.00 | 83 | 1009.1 |
| 20260509011444 | 76 | 159 | 3.0 | 3.0 | 0.00 | 0.00 | 0.00 | 82 | 1009.4 |
| 20260509010942 | 76 | 181 | 7.0 | 8.0 | 0.00 | 0.00 | 0.00 | 82 | 1009.2 |
| 20260509010439 | 76 | 128 | 5.0 | 7.0 | 0.00 | 0.00 | 0.00 | 81 | 1009.3 |
| 20260509005936 | 77 | 199 | 5.0 | 6.0 | 0.00 | 0.00 | 0.00 | 81 | 1009.4 |
| 20260509005434 | 77 | 179 | 7.0 | 9.0 | 0.00 | 0.00 | 0.00 | 81 | 1009.6 |
| 20260509004934 | 77 | 197 | 5.0 | 7.0 | 0.00 | 0.00 | 0.00 | 81 | 1009.5 |
| 20260509004431 | 77 | 197 | 8.0 | 9.0 | 0.00 | 0.00 | 0.00 | 81 | 1009.6 |
| 20260509003929 | 76 | 149 | 6.0 | 8.0 | 0.00 | 0.00 | 0.00 | 81 | 1009.3 |
| 20260509003426 | 76 | 169 | 4.0 | 7.0 | 0.00 | 0.00 | 0.00 | 81 | 1009.5 |
| 20260509002923 | 77 | 158 | 5.0 | 7.0 | 0.00 | 0.00 | 0.00 | 80 | 1009.4 |
| 20260509002421 | 76 | 148 | 6.0 | 7.0 | 0.00 | 0.00 | 0.00 | 80 | 1009.4 |
| 20260509001918 | 76 | 268 | 4.0 | 6.0 | 0.00 | 0.00 | 0.00 | 80 | 1009.4 |
| 20260509001414 | 76 | 190 | 8.0 | 10.0 | 0.00 | 0.00 | 0.00 | 80 | 1009.6 |
| 20260509000911 | 76 | 255 | 3.0 | 3.0 | 0.00 | 0.00 | 0.00 | 80 | 1009.5 |
| 20260509000410 | 77 | 202 | 3.0 | 5.0 | 0.00 | 0.00 | 0.00 | 80 | 1009.5 |
| 20260508235905 | 77 | 305 | 0.0 | 1.0 | 0.00 | 0.00 | 0.00 | 80 | 1009.6 |
| 20260508235402 | 77 | 198 | 4.0 | 6.0 | 0.00 | 0.00 | 0.00 | 80 | 1009.6 |
| 20260508234859 | 77 | 176 | 5.0 | 5.0 | 0.00 | 0.00 | 0.00 | 80 | 1009.6 |
| 20260508234356 | 77 | 205 | 3.0 | 5.0 | 0.00 | 0.00 | 0.00 | 80 | 1009.8 |
| 20260508233854 | 77 | 191 | 5.0 | 8.0 | 0.00 | 0.00 | 0.00 | 80 | 1009.8 |
| 20260508233354 | 77 | 269 | 3.0 | 5.0 | 0.00 | 0.00 | 0.00 | 79 | 1009.8 |
| 20260508232850 | 77 | 200 | 7.0 | 9.0 | 0.00 | 0.00 | 0.00 | 79 | 1009.3 |
| 20260508232346 | 77 | 195 | 5.0 | 7.0 | 0.00 | 0.00 | 0.00 | 79 | 1009.5 |
| 20260508231844 | 77 | 186 | 6.0 | 8.0 | 0.00 | 0.00 | 0.00 | 79 | 1009.5 |
| 20260508231340 | 77 | 170 | 5.0 | 7.0 | 0.00 | 0.00 | 0.00 | 78 | 1009.5 |
| 20260508230837 | 77 | 245 | 3.0 | 3.0 | 0.00 | 0.00 | 0.00 | 78 | 1009.4 |
| 20260508230333 | 78 | 221 | 7.0 | 7.0 | 0.00 | 0.00 | 0.00 | 78 | 1009.5 |
| 20260508225832 | 78 | 145 | 7.0 | 8.0 | 0.00 | 0.00 | 0.00 | 77 | 1009.8 |
| 20260508225328 | 78 | 213 | 2.0 | 3.0 | 0.00 | 0.00 | 0.00 | 77 | 1009.6 |
| 20260508224826 | 78 | 217 | 4.0 | 5.0 | 0.00 | 0.00 | 0.00 | 77 | 1009.4 |
| 20260508224323 | 78 | 165 | 5.0 | 6.0 | 0.00 | 0.00 | 0.00 | 77 | 1009.5 |
| 20260508223821 | 78 | 180 | 3.0 | 5.0 | 0.00 | 0.00 | 0.00 | 77 | 1009.8 |
| 20260508223318 | 78 | 135 | 7.0 | 8.0 | 0.00 | 0.00 | 0.00 | 76 | 1009.6 |
| 20260508222815 | 78 | 114 | 6.0 | 8.0 | 0.00 | 0.00 | 0.00 | 76 | 1009.6 |
| 20260508222312 | 78 | 130 | 6.0 | 7.0 | 0.00 | 0.00 | 0.00 | 76 | 1009.5 |
| 20260508221809 | 78 | 196 | 3.0 | 5.0 | 0.00 | 0.00 | 0.00 | 76 | 1009.8 |
| 20260508221304 | 79 | 126 | 2.0 | 3.0 | 0.00 | 0.00 | 0.00 | 75 | 1009.5 |
| 20260508220801 | 79 | 72 | 6.0 | 9.0 | 0.00 | 0.00 | 0.00 | 74 | 1009.6 |
| 20260508220258 | 79 | 195 | 4.0 | 5.0 | 0.00 | 0.00 | 0.00 | 74 | 1009.6 |
| 20260508215754 | 78 | 129 | 8.0 | 9.0 | 0.00 | 0.00 | 0.00 | 75 | 1009.8 |
| 20260508215251 | 78 | 114 | 5.0 | 7.0 | 0.00 | 0.00 | 0.00 | 75 | 1009.6 |
| 20260508214748 | 78 | 142 | 7.0 | 8.0 | 0.00 | 0.00 | 0.00 | 74 | 1009.9 |
| 20260508214240 | 79 | 237 | 5.0 | 7.0 | 0.00 | 0.00 | 0.00 | 73 | 1009.8 |
| 20260508213736 | 80 | 288 | 2.0 | 2.0 | 0.00 | 0.00 | 0.00 | 72 | 1010.1 |
| 20260508213233 | 79 | 140 | 2.0 | 3.0 | 0.00 | 0.00 | 0.00 | 73 | 1010.0 |
| 20260508212729 | 78 | 115 | 4.0 | 6.0 | 0.00 | 0.00 | 0.00 | 74 | 1010.0 |
| 20260508212225 | 78 | 203 | 4.0 | 5.0 | 0.00 | 0.00 | 0.00 | 75 | 1010.1 |
| 20260508211721 | 78 | 143 | 6.0 | 9.0 | 0.00 | 0.00 | 0.00 | 73 | 1010.2 |
| 20260508211217 | 79 | 125 | 7.0 | 8.0 | 0.00 | 0.00 | 0.00 | 74 | 1010.2 |
| 20260508210714 | 78 | 118 | 3.0 | 3.0 | 0.00 | 0.00 | 0.00 | 74 | 1010.3 |
| 20260508210211 | 79 | 73 | 2.0 | 3.0 | 0.00 | 0.00 | 0.00 | 72 | 1010.3 |
| 20260508205708 | 79 | 102 | 3.0 | 5.0 | 0.00 | 0.00 | 0.00 | 72 | 1010.4 |
| 20260508205204 | 79 | 349 | 2.0 | 3.0 | 0.00 | 0.00 | 0.00 | 71 | 1010.7 |
| 20260508204700 | 79 | 88 | 2.0 | 2.0 | 0.00 | 0.00 | 0.00 | 71 | 1010.8 |
| 20260508204157 | 79 | 314 | 2.0 | 2.0 | 0.00 | 0.00 | 0.00 | 71 | 1011.0 |
| 20260508203653 | 78 | 39 | 1.0 | 1.0 | 0.00 | 0.00 | 0.00 | 72 | 1010.9 |
| 20260508203149 | 78 | 127 | 2.0 | 3.0 | 0.00 | 0.00 | 0.00 | 72 | 1011.1 |
| 20260508202646 | 78 | 243 | 3.0 | 3.0 | 0.00 | 0.00 | 0.00 | 71 | 1011.0 |
| 20260508202143 | 78 | 184 | 3.0 | 5.0 | 0.00 | 0.00 | 0.00 | 72 | 1010.6 |
| 20260508201639 | 78 | 213 | 3.0 | 3.0 | 0.00 | 0.00 | 0.00 | 73 | 1011.0 |
| 20260508201136 | 77 | 133 | 3.0 | 5.0 | 0.00 | 0.00 | 0.00 | 73 | 1010.9 |
| 20260508200633 | 78 | 127 | 7.0 | 8.0 | 0.00 | 0.00 | 0.00 | 72 | 1011.1 |
| 20260508200129 | 78 | 94 | 4.0 | 5.0 | 0.00 | 0.00 | 0.00 | 70 | 1011.2 |
| 20260508195626 | 78 | 67 | 5.0 | 8.0 | 0.00 | 0.00 | 0.00 | 71 | 1011.2 |
| 20260508195122 | 78 | 64 | 4.0 | 6.0 | 0.00 | 0.00 | 0.00 | 72 | 1011.3 |
| 20260508194619 | 79 | 44 | 5.0 | 6.0 | 0.00 | 0.00 | 0.00 | 71 | 1011.2 |
| 20260508194116 | 77 | 75 | 2.0 | 2.0 | 0.00 | 0.00 | 0.00 | 73 | 1011.3 |
| 20260508193613 | 78 | 307 | 1.0 | 1.0 | 0.00 | 0.00 | 0.00 | 71 | 1011.3 |
| 20260508193110 | 79 | 107 | 3.0 | 6.0 | 0.00 | 0.00 | 0.00 | 70 | 1011.5 |
| 20260508192606 | 80 | 186 | 5.0 | 6.0 | 0.00 | 0.00 | 0.00 | 69 | 1011.7 |
| 20260508192103 | 80 | 262 | 2.0 | 5.0 | 0.00 | 0.00 | 0.00 | 68 | 1011.7 |
| 20260508191600 | 79 | 77 | 4.0 | 6.0 | 0.00 | 0.00 | 0.00 | 69 | 1011.5 |
| 20260508191057 | 79 | 48 | 3.0 | 5.0 | 0.00 | 0.00 | 0.00 | 70 | 1011.8 |
| 20260508190554 | 78 | 241 | 2.0 | 2.0 | 0.00 | 0.00 | 0.00 | 72 | 1011.8 |
| 20260508190050 | 77 | 53 | 2.0 | 3.0 | 0.00 | 0.00 | 0.00 | 71 | 1011.8 |
| 20260508185548 | 77 | 165 | 1.0 | 1.0 | 0.00 | 0.00 | 0.00 | 73 | 1011.8 |
| 20260508185045 | 78 | 72 | 2.0 | 2.0 | 0.00 | 0.00 | 0.00 | 70 | 1012.0 |
| 20260508184542 | 78 | 59 | 0.0 | 0.0 | 0.00 | 0.00 | 0.00 | 71 | 1012.2 |
| 20260508184039 | 79 | 63 | 2.0 | 3.0 | 0.00 | 0.00 | 0.00 | 68 | 1011.9 |
| 20260508183536 | 77 | 349 | 3.0 | 5.0 | 0.00 | 0.00 | 0.00 | 71 | 1011.8 |
| 20260508183032 | 77 | 69 | 3.0 | 5.0 | 0.00 | 0.00 | 0.00 | 71 | 1012.1 |
| 20260508182528 | 78 | 73 | 4.0 | 5.0 | 0.00 | 0.00 | 0.00 | 69 | 1012.2 |
| 20260508182025 | 78 | 309 | 1.0 | 2.0 | 0.00 | 0.00 | 0.00 | 70 | 1012.4 |
| 20260508181520 | 78 | 102 | 5.0 | 6.0 | 0.00 | 0.00 | 0.00 | 69 | 1012.4 |
| 20260508181018 | 77 | 49 | 4.0 | 5.0 | 0.00 | 0.00 | 0.00 | 70 | 1012.3 |
| 20260508180514 | 78 | 83 | 5.0 | 6.0 | 0.00 | 0.00 | 0.00 | 67 | 1012.6 |
| 20260508180011 | 77 | 316 | 1.0 | 1.0 | 0.00 | 0.00 | 0.00 | 69 | 1012.9 |
| 20260508175507 | 75 | 327 | 2.0 | 2.0 | 0.00 | 0.00 | 0.00 | 71 | 1012.5 |
| 20260508175005 | 75 | 147 | 2.0 | 3.0 | 0.00 | 0.00 | 0.00 | 73 | 1012.9 |
| 20260508174502 | 73 | 322 | 0.0 | 1.0 | 0.00 | 0.00 | 0.00 | 74 | 1012.6 |
| 20260508173959 | 71 | 310 | 1.0 | 1.0 | 0.00 | 0.00 | 0.00 | 79 | 1013.0 |
| 20260508173456 | 72 | 308 | 4.0 | 5.0 | 0.00 | 0.00 | 0.00 | 76 | 1013.0 |
| 20260508172952 | 74 | 358 | 3.0 | 3.0 | 0.00 | 0.00 | 0.00 | 71 | 1012.9 |
| 20260508172449 | 73 | 329 | 3.0 | 3.0 | 0.00 | 0.00 | 0.00 | 73 | 1013.2 |
| 20260508171946 | 73 | 6 | 1.0 | 1.0 | 0.00 | 0.00 | 0.00 | 74 | 1013.2 |
| 20260508171442 | 71 | 315 | 0.0 | 1.0 | 0.00 | 0.00 | 0.00 | 76 | 1013.2 |
| 20260508170939 | 71 | 103 | 3.0 | 5.0 | 0.00 | 0.00 | 0.00 | 75 | 1013.3 |
| 20260508170436 | 71 | 4 | 2.0 | 2.0 | 0.00 | 0.00 | 0.00 | 75 | 1013.1 |
| 20260508165933 | 71 | 338 | 2.0 | 2.0 | 0.00 | 0.00 | 0.00 | 75 | 1013.4 |
| 20260508165431 | 70 | 344 | 1.0 | 1.0 | 0.00 | 0.00 | 0.00 | 76 | 1013.4 |
| 20260508164926 | 71 | 20 | 2.0 | 2.0 | 0.00 | 0.00 | 0.00 | 75 | 1013.4 |
| 20260508164424 | 70 | 332 | 0.0 | 0.0 | 0.00 | 0.00 | 0.00 | 76 | 1013.8 |
| 20260508163921 | 69 | 322 | 0.0 | 0.0 | 0.00 | 0.00 | 0.00 | 77 | 1013.8 |
| 20260508163419 | 69 | 308 | 0.0 | 1.0 | 0.00 | 0.00 | 0.00 | 78 | 1013.8 |
| 20260508162914 | 69 | 321 | 0.0 | 1.0 | 0.00 | 0.00 | 0.00 | 77 | 1013.8 |
| 20260508162412 | 69 | 319 | 0.0 | 0.0 | 0.00 | 0.00 | 0.00 | 77 | 1014.1 |
| 20260508161908 | 68 | 331 | 1.0 | 1.0 | 0.00 | 0.00 | 0.00 | 78 | 1013.9 |
| 20260508161406 | 69 | 58 | 2.0 | 2.0 | 0.00 | 0.00 | 0.00 | 76 | 1014.0 |
| 20260508160903 | 69 | 7 | 2.0 | 2.0 | 0.00 | 0.00 | 0.00 | 76 | 1013.8 |
| 20260508160402 | 68 | 324 | 0.0 | 1.0 | 0.00 | 0.00 | 0.00 | 78 | 1014.2 |
| 20260508155857 | 67 | 2 | 0.0 | 1.0 | 0.00 | 0.00 | 0.00 | 79 | 1014.2 |
| 20260508155355 | 67 | 306 | 1.0 | 1.0 | 0.00 | 0.00 | 0.00 | 79 | 1014.1 |
| 20260508154851 | 66 | 320 | 1.0 | 1.0 | 0.00 | 0.00 | 0.00 | 81 | 1014.2 |
| 20260508154349 | 66 | 285 | 0.0 | 1.0 | 0.00 | 0.00 | 0.00 | 81 | 1014.2 |
| 20260508153845 | 66 | 300 | 1.0 | 1.0 | 0.00 | 0.00 | 0.00 | 81 | 1014.1 |
| 20260508153343 | 66 | 299 | 0.0 | 1.0 | 0.00 | 0.00 | 0.00 | 81 | 1014.4 |
| 20260508152838 | 66 | 260 | 2.0 | 2.0 | 0.00 | 0.00 | 0.00 | 82 | 1014.6 |
| 20260508152335 | 65 | 247 | 3.0 | 3.0 | 0.00 | 0.00 | 0.00 | 81 | 1014.3 |
| 20260508151831 | 66 | 86 | 1.0 | 2.0 | 0.00 | 0.00 | 0.00 | 81 | 1014.3 |
| 20260508151329 | 66 | 60 | 2.0 | 3.0 | 0.00 | 0.00 | 0.00 | 80 | 1014.2 |
| 20260508150825 | 66 | 245 | 1.0 | 2.0 | 0.00 | 0.00 | 0.00 | 80 | 1014.3 |
| 20260508150322 | 66 | 137 | 3.0 | 3.0 | 0.00 | 0.00 | 0.00 | 81 | 1014.4 |
| 20260508145818 | 65 | 241 | 2.0 | 2.0 | 0.00 | 0.00 | 0.00 | 81 | 1014.2 |